Regional Weather Roundup
Issued by NWS

Home | Current Version | Previous Version | Text Only | Print | Product List | Glossary On
Versions: 1 2 3 4 5 6 7 8 9 10 11 12 13 14 15 16 17 18 19 20 21 22 23 24 25 26 27 28 29 30 31 32 33 34 35 36 37 38 39 40 41 42 43 44 45 46 47 48 49 50
000
ASUS43 KTOP 010359
RWRKS

WEATHER ROUNDUP FOR KANSAS
NATIONAL WEATHER SERVICE GOODLAND KS
1100 PM CDT THU JUN 30 2016

NOTE:  "FAIR" INDICATES FEW OR NO CLOUDS BELOW 12,000 FEET WITH NO
SIGNIFICANT WEATHER AND/OR OBSTRUCTIONS TO VISIBILITY.

KSZ001>006-013>018-027>032-041>047-010500-
NORTHWEST KANSAS

CITY           SKY/WX    TMP DP  RH WIND       PRES   REMARKS
GOODLAND       RAIN      66  62  87 E7        30.21R
HAYS           PTCLDY    73  59  60 NE7       30.07R
HILL CITY      MOCLDY    75  61  61 NE9       30.10R
RUSSELL        CLOUDY    73  62  68 NE8       30.04R
$$

KSZ061>065-074>080-084>089-010500-
SOUTHWEST KANSAS

CITY           SKY/WX    TMP DP  RH WIND       PRES   REMARKS
DODGE CITY     CLOUDY    77  59  53 NE12      30.07R
ELKHART          N/A     66  62  87 NE8         N/A
GARDEN CITY    LGT RAIN  72  63  73 E9        30.08R
GREAT BEND     CLOUDY    75  59  57 NE8       30.04R
LIBERAL        CLOUDY    79  63  57 SW5       30.09R
$$

KSZ066>073-081>083-090>101-010500-
SOUTHEAST KANSAS

CITY           SKY/WX    TMP DP  RH WIND       PRES   REMARKS
CHANUTE        CLEAR     76  68  76 W3        29.99R
COFFEYVILLE    CLEAR     72  66  81 CALM      29.97R
HUTCHINSON     CLEAR     77  59  53 NE8       30.01R
MEDICINE LODGE   N/A     78  65  63 E5        30.00R
PARSONS        CLEAR     70  67  90 CALM      29.99R
WICHITA INTL   PTCLDY    79  69  71 CALM      29.99S
WICHITA JABRA  CLEAR     76  70  82 CALM      30.00R
WINFIELD       CLEAR     74  69  85 SE5       29.99F
$$

KSZ007>012-019>026-033>040-048>060-102>105-010500-
NORTHEAST KANSAS

CITY           SKY/WX    TMP DP  RH WIND       PRES   REMARKS
CONCORDIA      CLEAR     74  63  68 NE6       30.05R
EMPORIA        CLEAR     75  62  64 NE3       30.00R
LAWRENCE       CLEAR     75  68  78 NE8       29.99R
MANHATTAN      CLEAR     77  66  68 NE10      30.02R
OLATHE IND     PTCLDY    75  71  87 NE6       30.01R
OLATHE EXE     PTCLDY    74  67  78 E8        30.01R
SALINA         CLEAR     79  63  57 N3        30.02R
TOPEKA BILLARD CLEAR     77  66  68 N6        30.01R
TOPEKA FORBES  MOCLDY    78  70  76 N6        30.01R
$$




USA.gov is the U.S. government's official web portal to all federal, state and local government web resources and services.